QPF
0.04 0.04 0.03 0.02 0.01 0.00 0.01 0.01 0.01 0.01 0.01 0.01 0.00 0.00 0.00 0.01 0.00 0.00 0.00 0.00 0.00 0.00 0.00 0.00 0.00 0.00 0.00 0.00 0.00 0.00 0.00 0.00 0.00 0.01 0.01 0.01 0.01 0.02
0.04 0.04 0.04 0.03 0.01 0.01 0.01 0.02 0.02 0.01 0.01 0.01 0.01 0.01 0.01 0.01 0.01 0.00 0.00 0.00 0.00 0.00 0.00 0.00 0.00 0.00 0.00 0.00 0.00 0.00 0.00 0.00 0.00 0.00 0.00 0.00 0.00 0.00
0.03 0.04 0.04 0.03 0.02 0.02 0.02 0.02 0.02 0.02 0.02 0.01 0.01 0.01 0.01 0.01 0.01 0.01 0.01 0.01 0.00 0.00 0.00 0.00 0.00 0.00 0.00 0.00 0.00 0.00 0.00 0.00 0.00 0.00 0.00 0.00 0.00 0.00
0.02 0.03 0.03 0.03 0.03 0.02 0.02 0.02 0.02 0.02 0.02 0.02 0.02 0.02 0.01 0.01 0.02 0.02 0.01 0.00 0.01 0.01 0.00 0.00 0.00 0.01 0.01 0.00 0.01 0.01 0.00 0.00 0.00 0.00 0.00 0.00 0.00 0.00
0.04 0.03 0.04 0.04 0.03 0.03 0.03 0.03 0.02 0.02 0.02 0.03 0.03 0.03 0.02 0.02 0.02 0.02 0.02 0.02 0.01 0.00 0.00 0.00 0.00 0.00 0.00 0.00 0.01 0.01 0.01 0.01 0.01 0.01 0.01 0.01 0.01 0.01
0.07 0.06 0.06 0.05 0.05 0.05 0.03 0.03 0.03 0.03 0.03 0.03 0.03 0.03 0.02 0.02 0.03 0.02 0.02 0.02 0.01 0.01 0.01 0.01 0.00 0.00 0.00 0.00 0.00 0.00 0.00 0.01 0.01 0.01 0.02 0.02 0.02 0.01
0.07 0.07 0.06 0.06 0.06 0.05 0.03 0.04 0.04 0.04 0.04 0.04 0.04 0.04 0.03 0.03 0.02 0.02 0.02 0.03 0.02 0.02 0.02 0.01 0.01 0.01 0.01 0.01 0.00 0.00 0.00 0.00 0.01 0.01 0.01 0.02 0.02 0.02
0.08 0.08 0.07 0.07 0.06 0.04 0.04 0.03 0.03 0.03 0.04 0.04 0.03 0.04 0.04 0.04 0.03 0.03 0.03 0.03 0.03 0.03 0.03 0.02 0.02 0.02 0.02 0.01 0.01 0.01 0.01 0.01 0.01 0.01 0.01 0.01 0.02 0.02
0.07 0.06 0.05 0.05 0.05 0.05 0.04 0.04 0.03 0.02 0.03 0.03 0.04 0.05 0.05 0.05 0.04 0.04 0.05 0.05 0.05 0.04 0.04 0.03 0.02 0.03 0.02 0.01 0.01 0.01 0.01 0.01 0.01 0.01 0.02 0.02 0.02 0.02
0.06 0.05 0.05 0.05 0.06 0.06 0.07 0.06 0.05 0.04 0.04 0.03 0.03 0.04 0.03 0.03 0.03 0.03 0.04 0.04 0.04 0.03 0.03 0.03 0.02 0.02 0.02 0.02 0.01 0.01 0.00 0.01 0.01 0.01 0.02 0.03 0.03 0.02
0.08 0.08 0.08 0.08 0.09 0.08 0.07 0.08 0.08 0.06 0.05 0.04 0.03 0.02 0.02 0.02 0.01 0.02 0.02 0.02 0.03 0.02 0.03 0.03 0.02 0.02 0.02 0.02 0.01 0.01 0.00 0.00 0.01 0.01 0.02 0.03 0.04 0.04
0.09 0.08 0.08 0.07 0.07 0.06 0.05 0.06 0.05 0.05 0.04 0.03 0.02 0.02 0.01 0.02 0.02 0.02 0.03 0.04 0.05 0.04 0.04 0.03 0.03 0.03 0.02 0.02 0.02 0.02 0.02 0.02 0.01 0.01 0.02 0.03 0.03 0.03
0.11 0.09 0.09 0.09 0.08 0.07 0.06 0.05 0.04 0.03 0.03 0.02 0.03 0.03 0.03 0.03 0.04 0.04 0.04 0.04 0.04 0.04 0.03 0.03 0.02 0.02 0.03 0.03 0.04 0.03 0.03 0.03 0.03 0.02 0.02 0.02 0.02 0.02
0.11 0.08 0.08 0.08 0.06 0.05 0.04 0.04 0.04 0.04 0.03 0.04 0.05 0.05 0.05 0.04 0.03 0.03 0.03 0.02 0.02 0.02 0.02 0.02 0.02 0.03 0.03 0.03 0.03 0.04 0.04 0.04 0.03 0.03 0.03 0.02 0.02 0.01
0.06 0.07 0.06 0.06 0.05 0.04 0.05 0.04 0.04 0.04 0.04 0.05 0.04 0.04 0.03 0.02 0.02 0.01 0.01 0.01 0.01 0.01 0.01 0.01 0.02 0.03 0.03 0.03 0.03 0.03 0.03 0.03 0.03 0.03 0.03 0.03 0.03 0.03
0.06 0.06 0.05 0.05 0.04 0.04 0.04 0.04 0.03 0.03 0.03 0.03 0.02 0.02 0.01 0.01 0.01 0.01 0.01 0.01 0.01 0.02 0.02 0.02 0.02 0.02 0.03 0.03 0.03 0.03 0.04 0.04 0.04 0.04 0.04 0.05 0.04 0.04
0.07 0.07 0.06 0.05 0.05 0.04 0.05 0.05 0.05 0.04 0.03 0.02 0.02 0.01 0.01 0.01 0.00 0.00 0.00 0.00 0.00 0.01 0.01 0.01 0.01 0.01 0.02 0.02 0.02 0.03 0.03 0.03 0.03 0.04 0.05 0.05 0.05 0.05
0.06 0.05 0.05 0.04 0.03 0.03 0.04 0.04 0.04 0.03 0.02 0.02 0.01 0.01 0.01 0.00 0.00 0.00 0.00 0.00 0.00 0.00 0.00 0.00 0.00 0.00 0.00 0.01 0.01 0.01 0.02 0.02 0.02 0.03 0.04 0.04 0.04 0.04
0.05 0.04 0.03 0.03 0.02 0.02 0.02 0.02 0.02 0.02 0.01 0.01 0.00 0.00 0.00 0.00 0.00 0.00 0.00 0.00 0.00 0.00 0.00 0.00 0.00 0.01 0.01 0.01 0.01 0.00 0.01 0.02 0.02 0.02 0.03 0.04 0.03 0.03
0.03 0.02 0.02 0.02 0.02 0.02 0.02 0.02 0.01 0.01 0.00 0.00 0.00 0.00 0.00 0.00 0.00 0.00 0.00 0.00 0.00 0.00 0.00 0.00 0.01 0.01 0.01 0.01 0.01 0.01 0.01 0.02 0.03 0.03 0.03 0.02 0.02 0.02
0.02 0.02 0.02 0.03 0.03 0.02 0.02 0.01 0.01 0.00 0.00 0.00 0.00 0.00 0.00 0.00 0.00 0.00 0.00 0.00 0.00 0.00 0.00 0.00 0.01 0.00 0.01 0.01 0.02 0.02 0.02 0.01 0.02 0.02 0.02 0.01 0.01 0.01
0.04 0.04 0.03 0.03 0.02 0.01 0.01 0.00 0.00 0.00 0.00 0.00 0.00 0.00 0.00 0.00 0.00 0.00 0.00 0.00 0.00 0.00 0.00 0.00 0.00 0.01 0.01 0.01 0.02 0.02 0.01 0.02 0.02 0.01 0.01 0.01 0.02 0.01
0.03 0.03 0.02 0.01 0.01 0.00 0.00 0.00 0.00 0.00 0.00 0.00 0.00 0.00 0.00 0.00 0.00 0.00 0.00 0.00 0.00 0.00 0.00 0.00 0.01 0.01 0.01 0.01 0.02 0.02 0.02 0.03 0.04 0.04 0.03 0.02 0.01 0.01
MSLP
1019.24 1019.41 1019.59 1019.77 1019.92 1020.04 1020.10 1020.11 1020.06 1019.95 1019.80 1019.62 1019.43 1019.25 1019.11 1019.03 1019.02 1019.09 1019.24 1019.44 1019.70 1019.97 1020.24 1020.47 1020.65 1020.75 1020.79 1020.77 1020.70 1020.60 1020.49 1020.40 1020.33 1020.30 1020.29 1020.31 1020.34 1020.38
1019.18 1019.31 1019.44 1019.56 1019.66 1019.72 1019.76 1019.76 1019.72 1019.65 1019.54 1019.42 1019.28 1019.15 1019.04 1018.96 1018.93 1018.96 1019.05 1019.20 1019.39 1019.60 1019.82 1020.02 1020.18 1020.29 1020.34 1020.33 1020.27 1020.18 1020.08 1019.98 1019.89 1019.82 1019.78 1019.75 1019.74 1019.73
1019.12 1019.22 1019.30 1019.36 1019.39 1019.41 1019.42 1019.41 1019.39 1019.36 1019.31 1019.26 1019.20 1019.13 1019.06 1019.01 1018.97 1018.96 1018.98 1019.04 1019.14 1019.26 1019.40 1019.54 1019.66 1019.76 1019.81 1019.83 1019.81 1019.76 1019.69 1019.61 1019.52 1019.44 1019.37 1019.30 1019.24 1019.18
1019.11 1019.18 1019.22 1019.23 1019.22 1019.20 1019.18 1019.17 1019.17 1019.18 1019.21 1019.23 1019.25 1019.26 1019.24 1019.21 1019.17 1019.11 1019.06 1019.02 1019.00 1019.01 1019.04 1019.09 1019.16 1019.22 1019.28 1019.33 1019.36 1019.36 1019.34 1019.30 1019.24 1019.17 1019.08 1018.98 1018.87 1018.74
1019.19 1019.25 1019.27 1019.26 1019.22 1019.18 1019.15 1019.14 1019.16 1019.22 1019.30 1019.40 1019.50 1019.57 1019.61 1019.60 1019.54 1019.44 1019.30 1019.15 1019.01 1018.88 1018.79 1018.74 1018.73 1018.75 1018.80 1018.87 1018.94 1019.00 1019.04 1019.05 1019.03 1018.98 1018.88 1018.75 1018.59 1018.40
1019.40 1019.48 1019.51 1019.50 1019.46 1019.42 1019.38 1019.38 1019.43 1019.52 1019.65 1019.81 1019.96 1020.08 1020.16 1020.16 1020.08 1019.93 1019.71 1019.45 1019.18 1018.92 1018.70 1018.54 1018.44 1018.40 1018.42 1018.49 1018.59 1018.69 1018.78 1018.84 1018.86 1018.82 1018.72 1018.56 1018.35 1018.09
1019.76 1019.88 1019.95 1019.97 1019.95 1019.92 1019.90 1019.91 1019.97 1020.07 1020.23 1020.41 1020.60 1020.75 1020.83 1020.84 1020.74 1020.54 1020.25 1019.90 1019.51 1019.13 1018.79 1018.51 1018.31 1018.20 1018.18 1018.22 1018.32 1018.43 1018.54 1018.62 1018.65 1018.62 1018.51 1018.32 1018.06 1017.74
1020.28 1020.46 1020.58 1020.65 1020.67 1020.66 1020.65 1020.67 1020.72 1020.82 1020.97 1021.15 1021.33 1021.48 1021.56 1021.55 1021.43 1021.19 1020.85 1020.42 1019.96 1019.48 1019.03 1018.65 1018.36 1018.17 1018.07 1018.06 1018.11 1018.20 1018.28 1018.34 1018.36 1018.30 1018.16 1017.94 1017.63 1017.26
1020.93 1021.17 1021.35 1021.47 1021.53 1021.55 1021.55 1021.56 1021.59 1021.66 1021.77 1021.91 1022.06 1022.17 1022.23 1022.19 1022.05 1021.79 1021.42 1020.96 1020.44 1019.90 1019.39 1018.93 1018.55 1018.27 1018.09 1017.99 1017.96 1017.97 1017.98 1017.98 1017.93 1017.82 1017.64 1017.37 1017.03 1016.61
1021.66 1021.95 1022.19 1022.35 1022.45 1022.49 1022.48 1022.47 1022.46 1022.47 1022.52 1022.59 1022.67 1022.73 1022.74 1022.68 1022.52 1022.25 1021.88 1021.42 1020.89 1020.34 1019.79 1019.28 1018.84 1018.47 1018.19 1017.98 1017.84 1017.73 1017.63 1017.52 1017.38 1017.18 1016.93 1016.61 1016.22 1015.78
1022.41 1022.74 1023.01 1023.20 1023.31 1023.35 1023.33 1023.28 1023.21 1023.15 1023.11 1023.10 1023.09 1023.08 1023.04 1022.95 1022.78 1022.52 1022.17 1021.74 1021.24 1020.71 1020.17 1019.64 1019.16 1018.72 1018.34 1018.02 1017.74 1017.49 1017.25 1017.00 1016.73 1016.42 1016.08 1015.70 1015.28 1014.82
1023.15 1023.47 1023.74 1023.94 1024.05 1024.07 1024.02 1023.91 1023.78 1023.64 1023.51 1023.40 1023.31 1023.22 1023.12 1022.99 1022.82 1022.57 1022.26 1021.88 1021.45 1020.97 1020.46 1019.95 1019.45 1018.97 1018.51 1018.08 1017.67 1017.27 1016.87 1016.47 1016.05 1015.63 1015.19 1014.74 1014.28 1013.81
1023.81 1024.10 1024.34 1024.51 1024.59 1024.59 1024.50 1024.35 1024.15 1023.94 1023.72 1023.53 1023.35 1023.18 1023.03 1022.86 1022.68 1022.46 1022.19 1021.87 1021.51 1021.10 1020.65 1020.17 1019.68 1019.18 1018.66 1018.14 1017.62 1017.08 1016.54 1015.99 1015.44 1014.90 1014.36 1013.84 1013.33 1012.85
1024.36 1024.59 1024.78 1024.90 1024.94 1024.90 1024.78 1024.59 1024.34 1024.07 1023.79 1023.52 1023.27 1023.04 1022.83 1022.64 1022.44 1022.23 1022.01 1021.74 1021.44 1021.10 1020.72 1020.30 1019.83 1019.33 1018.79 1018.21 1017.60 1016.96 1016.30 1015.64 1014.97 1014.32 1013.69 1013.10 1012.55 1012.03
1024.77 1024.93 1025.05 1025.12 1025.12 1025.05 1024.90 1024.68 1024.42 1024.11 1023.79 1023.48 1023.17 1022.89 1022.64 1022.41 1022.20 1021.99 1021.78 1021.55 1021.31 1021.02 1020.70 1020.33 1019.90 1019.42 1018.88 1018.27 1017.62 1016.92 1016.18 1015.43 1014.69 1013.96 1013.26 1012.60 1011.99 1011.43
1025.05 1025.12 1025.18 1025.20 1025.17 1025.08 1024.92 1024.71 1024.44 1024.14 1023.81 1023.47 1023.14 1022.82 1022.53 1022.26 1022.02 1021.80 1021.58 1021.37 1021.15 1020.90 1020.62 1020.29 1019.90 1019.45 1018.92 1018.33 1017.66 1016.94 1016.18 1015.39 1014.60 1013.82 1013.07 1012.36 1011.69 1011.08
1025.21 1025.22 1025.21 1025.19 1025.15 1025.05 1024.92 1024.73 1024.49 1024.21 1023.90 1023.57 1023.22 1022.89 1022.56 1022.26 1021.98 1021.72 1021.47 1021.25 1021.02 1020.78 1020.51 1020.21 1019.85 1019.43 1018.93 1018.37 1017.72 1017.02 1016.26 1015.48 1014.68 1013.88 1013.10 1012.36 1011.64 1010.97
1025.31 1025.26 1025.22 1025.18 1025.13 1025.06 1024.96 1024.81 1024.62 1024.38 1024.11 1023.80 1023.46 1023.11 1022.76 1022.42 1022.09 1021.78 1021.49 1021.21 1020.95 1020.69 1020.42 1020.11 1019.77 1019.37 1018.91 1018.37 1017.77 1017.10 1016.39 1015.63 1014.86 1014.08 1013.30 1012.53 1011.78 1011.05
1025.41 1025.33 1025.28 1025.24 1025.20 1025.16 1025.10 1025.00 1024.87 1024.68 1024.45 1024.16 1023.84 1023.48 1023.10 1022.72 1022.33 1021.96 1021.61 1021.28 1020.96 1020.66 1020.35 1020.03 1019.68 1019.29 1018.84 1018.34 1017.78 1017.16 1016.49 1015.79 1015.06 1014.31 1013.56 1012.80 1012.03 1011.26
1025.57 1025.50 1025.45 1025.42 1025.41 1025.40 1025.38 1025.34 1025.25 1025.10 1024.90 1024.64 1024.32 1023.95 1023.54 1023.11 1022.67 1022.24 1021.82 1021.42 1021.04 1020.68 1020.32 1019.97 1019.59 1019.19 1018.75 1018.27 1017.74 1017.16 1016.54 1015.89 1015.22 1014.52 1013.80 1013.06 1012.31 1011.53
1025.86 1025.80 1025.77 1025.77 1025.79 1025.81 1025.82 1025.81 1025.75 1025.63 1025.44 1025.18 1024.85 1024.46 1024.02 1023.54 1023.05 1022.56 1022.07 1021.61 1021.17 1020.75 1020.34 1019.94 1019.53 1019.10 1018.65 1018.17 1017.65 1017.10 1016.52 1015.91 1015.28 1014.64 1013.97 1013.28 1012.56 1011.80
1026.28 1026.26 1026.26 1026.29 1026.33 1026.37 1026.40 1026.40 1026.34 1026.22 1026.02 1025.74 1025.39 1024.96 1024.48 1023.96 1023.41 1022.87 1022.33 1021.81 1021.32 1020.85 1020.39 1019.94 1019.49 1019.03 1018.55 1018.05 1017.53 1016.98 1016.42 1015.85 1015.26 1014.66 1014.05 1013.42 1012.76 1012.05
1026.81 1026.83 1026.87 1026.92 1026.99 1027.05 1027.08 1027.07 1026.99 1026.84 1026.61 1026.29 1025.88 1025.41 1024.88 1024.31 1023.73 1023.14 1022.56 1022.00 1021.47 1020.96 1020.46 1019.98 1019.49 1018.99 1018.48 1017.95 1017.40 1016.85 1016.29 1015.74 1015.18 1014.63 1014.07 1013.51 1012.92 1012.29
Thickness
5728 5727 5727 5730 5730 5730 5730 5728 5722 5719 5721 5726 5727 5729 5726 5723 5720 5719 5717 5714 5711 5709 5707 5705 5703 5702 5700 5698 5697 5695 5694 5693 5691 5690 5689 5688 5687 5686
5725 5725 5724 5728 5727 5727 5726 5726 5724 5721 5718 5725 5724 5727 5722 5723 5718 5717 5716 5713 5710 5708 5706 5704 5702 5700 5699 5697 5695 5693 5692 5691 5689 5688 5687 5686 5685 5684
5722 5722 5721 5721 5723 5724 5723 5722 5721 5719 5715 5719 5723 5722 5717 5715 5715 5714 5714 5711 5711 5708 5704 5702 5700 5698 5696 5694 5692 5691 5689 5688 5686 5685 5684 5683 5682 5681
5719 5718 5718 5718 5716 5717 5718 5718 5717 5716 5713 5710 5714 5715 5712 5711 5710 5708 5710 5711 5709 5706 5702 5699 5697 5695 5693 5691 5689 5687 5685 5684 5682 5681 5680 5679 5677 5676
5716 5714 5714 5713 5711 5713 5711 5713 5713 5713 5710 5708 5707 5709 5708 5708 5705 5704 5705 5703 5703 5703 5699 5696 5694 5691 5689 5687 5685 5683 5681 5679 5677 5676 5675 5673 5672 5671
5712 5711 5710 5709 5707 5706 5707 5706 5706 5706 5705 5702 5702 5702 5701 5701 5698 5697 5698 5698 5697 5698 5696 5693 5690 5687 5685 5683 5680 5678 5675 5673 5671 5670 5668 5667 5666 5664
5706 5705 5704 5702 5701 5700 5701 5700 5700 5698 5698 5696 5695 5694 5692 5689 5689 5690 5689 5689 5690 5689 5688 5687 5686 5684 5682 5678 5674 5671 5668 5666 5664 5662 5660 5659 5657 5656
5699 5698 5698 5695 5693 5690 5689 5689 5688 5689 5689 5687 5686 5682 5680 5680 5679 5679 5679 5678 5677 5680 5677 5677 5677 5676 5674 5672 5668 5664 5660 5657 5655 5652 5650 5649 5648 5647
5693 5691 5692 5691 5687 5686 5683 5679 5678 5676 5675 5675 5674 5671 5670 5668 5667 5668 5666 5664 5663 5666 5664 5664 5666 5665 5663 5661 5657 5653 5649 5646 5644 5642 5640 5639 5637 5636
5685 5684 5682 5681 5679 5677 5676 5673 5670 5667 5665 5663 5662 5661 5659 5656 5655 5655 5653 5654 5654 5655 5652 5651 5653 5651 5651 5648 5644 5640 5637 5634 5632 5630 5628 5627 5625 5625
5675 5673 5672 5670 5667 5666 5666 5663 5659 5656 5653 5650 5648 5646 5644 5643 5642 5644 5643 5643 5643 5644 5640 5636 5638 5637 5637 5636 5633 5629 5625 5622 5620 5618 5616 5614 5612 5612
5665 5661 5657 5657 5654 5654 5654 5652 5648 5646 5644 5642 5638 5635 5634 5632 5630 5629 5629 5629 5628 5627 5626 5622 5623 5622 5622 5624 5621 5616 5613 5610 5607 5605 5603 5600 5597 5597
5654 5649 5644 5642 5641 5640 5639 5637 5634 5633 5632 5630 5628 5625 5623 5620 5618 5615 5612 5611 5611 5610 5608 5605 5606 5605 5603 5605 5604 5602 5599 5597 5594 5592 5590 5586 5583 5580
5641 5636 5630 5628 5627 5625 5624 5621 5620 5620 5621 5618 5615 5611 5608 5605 5603 5600 5596 5594 5591 5590 5588 5586 5586 5585 5584 5586 5587 5586 5583 5580 5578 5576 5574 5571 5569 5567
5625 5620 5616 5614 5614 5611 5608 5607 5608 5608 5606 5603 5600 5596 5592 5589 5587 5585 5583 5581 5578 5576 5574 5570 5568 5567 5566 5566 5567 5567 5566 5564 5562 5559 5557 5555 5555 5554
5612 5606 5603 5601 5600 5597 5597 5596 5594 5590 5589 5586 5583 5580 5577 5575 5573 5571 5569 5567 5566 5564 5560 5555 5551 5548 5548 5548 5547 5548 5547 5546 5545 5542 5540 5539 5539 5539
5603 5599 5597 5594 5591 5587 5585 5581 5579 5577 5573 5570 5567 5564 5562 5559 5557 5554 5550 5550 5549 5547 5545 5541 5538 5534 5532 5529 5531 5531 5530 5529 5528 5525 5522 5524 5524 5523
5592 5589 5584 5580 5577 5573 5571 5567 5563 5559 5555 5552 5550 5547 5544 5542 5539 5537 5534 5531 5530 5528 5526 5523 5521 5519 5519 5519 5513 5513 5513 5512 5511 5508 5507 5509 5510 5508
5580 5575 5570 5565 5562 5558 5555 5551 5546 5541 5536 5535 5532 5529 5526 5524 5522 5519 5516 5514 5511 5509 5507 5505 5503 5502 5502 5503 5501 5494 5494 5494 5494 5495 5494 5493 5494 5494
5566 5561 5555 5551 5546 5542 5538 5534 5530 5526 5522 5519 5516 5513 5509 5507 5505 5502 5499 5494 5493 5492 5492 5490 5487 5483 5481 5481 5483 5484 5480 5480 5480 5480 5480 5481 5482 5481
5549 5544 5540 5535 5530 5525 5521 5518 5514 5510 5505 5503 5500 5495 5493 5490 5487 5485 5482 5478 5476 5479 5477 5476 5472 5465 5466 5468 5471 5474 5472 5468 5466 5465 5467 5469 5471 5472
5532 5528 5523 5518 5514 5510 5506 5503 5500 5496 5491 5488 5484 5481 5478 5475 5473 5470 5468 5467 5465 5464 5462 5462 5460 5459 5459 5459 5460 5461 5462 5461 5459 5458 5456 5454 5455 5458
5516 5512 5507 5503 5499 5495 5492 5489 5485 5481 5476 5473 5469 5467 5464 5462 5459 5458 5456 5455 5453 5452 5451 5451 5450 5449 5449 5450 5450 5451 5452 5453 5454 5455 5454 5449 5446 5445